• în România
  • Lista ţărilor
  • Pe 7 zile
  • Temperatura apei
  • Hartă satelitară
  • Meteo pe hartă
  • Widget-uri
  • user-avatar
    Intrare

    Meteo pe oră la Ploieşti

    Astăzi, 25 Septembrie, Marţi

    Timp Temperatura Precipitaţii Vânt Presiune Umiditate
    00:00 +13°C° 0.2 mm 2 m/s 751 mmHg 69%
    01:00 +13°C° 0.2 mm 2 m/s 752 mmHg 70%
    02:00 +13°C° 0.2 mm 2 m/s 752 mmHg 71%
    03:00 +12°C° 0.1 mm 2 m/s 752 mmHg 72%
    04:00 +12°C° 0.1 mm 2 m/s 753 mmHg 72%
    05:00 +12°C° 0.1 mm 2 m/s 753 mmHg 73%
    06:00 +11°C° 0.1 mm 3 m/s 753 mmHg 69%
    07:00 +11°C° 0.1 mm 3 m/s 754 mmHg 64%
    08:00 +11°C° 0.1 mm 3 m/s 754 mmHg 59%
    09:00 +12°C° 0.2 mm 3 m/s 754 mmHg 53%
    10:00 +14°C° 0.2 mm 4 m/s 754 mmHg 47%
    11:00 +15°C° 0.2 mm 4 m/s 755 mmHg 42%
    12:00 +15°C° 0.1 mm 4 m/s 755 mmHg 38%
    13:00 +17°C° 0.1 mm 4 m/s 755 mmHg 34%
    14:00 +17°C° 0.1 mm 4 m/s 755 mmHg 31%
    15:00 +17°C° 0 mm 4 m/s 755 mmHg 32%
    16:00 +15°C° 0 mm 4 m/s 755 mmHg 33%
    17:00 +15°C° 0 mm 4 m/s 755 mmHg 34%
    18:00 +13°C° 0 mm 4 m/s 756 mmHg 37%
    19:00 +12°C° 0 mm 4 m/s 757 mmHg 41%
    20:00 +10°C° 0 mm 3 m/s 758 mmHg 45%
    21:00 +10°C° 0 mm 3 m/s 758 mmHg 47%
    22:00 +9°C° 0 mm 3 m/s 759 mmHg 50%
    23:00 +9°C° 0 mm 2 m/s 759 mmHg 52%

    Mâine, 26 Septembrie, Miercuri

    Timp Temperatura Precipitaţii Vânt Presiune Umiditate
    00:00 +8°C° 0 mm 2 m/s 760 mmHg 54%
    01:00 +8°C° 0 mm 2 m/s 760 mmHg 56%
    02:00 +8°C° 0 mm 2 m/s 760 mmHg 58%
    03:00 +7°C° 0 mm 2 m/s 760 mmHg 59%
    04:00 +7°C° 0 mm 2 m/s 760 mmHg 60%
    05:00 +7°C° 0 mm 2 m/s 761 mmHg 61%
    06:00 +8°C° 0 mm 2 m/s 761 mmHg 57%
    07:00 +8°C° 0 mm 2 m/s 761 mmHg 53%
    08:00 +9°C° 0 mm 2 m/s 761 mmHg 50%
    09:00 +12°C° 0 mm 2 m/s 761 mmHg 44%
    10:00 +14°C° 0 mm 2 m/s 761 mmHg 39%
    11:00 +15°C° 0 mm 2 m/s 761 mmHg 33%
    12:00 +16°C° 0 mm 2 m/s 761 mmHg 32%
    13:00 +16°C° 0 mm 2 m/s 761 mmHg 31%
    14:00 +16°C° 0 mm 2 m/s 760 mmHg 29%
    15:00 +16°C° 0 mm 2 m/s 760 mmHg 30%
    16:00 +16°C° 0 mm 2 m/s 760 mmHg 31%
    17:00 +15°C° 0 mm 2 m/s 760 mmHg 31%
    18:00 +14°C° 0 mm 2 m/s 760 mmHg 35%
    19:00 +13°C° 0 mm 2 m/s 761 mmHg 39%
    20:00 +10°C° 0 mm 2 m/s 761 mmHg 43%
    21:00 +10°C° 0 mm 2 m/s 761 mmHg 45%
    22:00 +9°C° 0 mm 2 m/s 761 mmHg 46%
    23:00 +8°C° 0 mm 2 m/s 762 mmHg 48%

    Poimâine, 27 Septembrie, Joi

    Timp Temperatura Precipitaţii Vânt Presiune Umiditate
    00:00 +8°C° 0 mm 2 m/s 762 mmHg 49%
    01:00 +9°C° 0 mm 1 m/s 761 mmHg 50%
    02:00 +8°C° 0 mm 1 m/s 761 mmHg 52%
    03:00 +8°C° 0 mm 1 m/s 761 mmHg 52%
    04:00 +8°C° 0 mm 1 m/s 761 mmHg 53%
    05:00 +7°C° 0 mm 1 m/s 760 mmHg 54%
    06:00 +8°C° 0 mm 1 m/s 760 mmHg 50%
    07:00 +10°C° 0 mm 1 m/s 760 mmHg 47%
    08:00 +11°C° 0 mm 1 m/s 760 mmHg 44%
    09:00 +13°C° 0 mm 2 m/s 760 mmHg 39%
    10:00 +14°C° 0 mm 2 m/s 759 mmHg 35%
    11:00 +16°C° 0 mm 2 m/s 759 mmHg 31%
    12:00 +17°C° 0 mm 2 m/s 758 mmHg 29%
    13:00 +19°C° 0 mm 2 m/s 758 mmHg 27%
    14:00 +21°C° 0 mm 1 m/s 757 mmHg 25%
    15:00 +20°C° 0 mm 1 m/s 757 mmHg 26%
    16:00 +19°C° 0 mm 2 m/s 756 mmHg 28%
    17:00 +19°C° 0 mm 2 m/s 756 mmHg 29%
    18:00 +18°C° 0 mm 1 m/s 756 mmHg 33%
    19:00 +15°C° 0 mm 1 m/s 756 mmHg 36%
    20:00 +14°C° 0 mm 1 m/s 756 mmHg 40%
    21:00 +13°C° 0 mm 1 m/s 756 mmHg 41%
    22:00 +13°C° 0 mm 1 m/s 756 mmHg 43%
    23:00 +13°C° 0 mm 1 m/s 756 mmHg 44%

    28 Septembrie, Vineri

    Timp Temperatura Precipitaţii Vânt Presiune Umiditate
    00:00 +13°C° 0 mm 1 m/s 756 mmHg 45%
    01:00 +13°C° 0 mm 1 m/s 756 mmHg 46%
    02:00 +13°C° 0 mm 1 m/s 756 mmHg 47%
    03:00 +12°C° 0 mm 1 m/s 755 mmHg 49%
    04:00 +12°C° 0 mm 1 m/s 755 mmHg 50%
    05:00 +12°C° 0 mm 1 m/s 754 mmHg 51%
    06:00 +13°C° 0 mm 1 m/s 754 mmHg 49%
    07:00 +14°C° 0 mm 1 m/s 754 mmHg 47%
    08:00 +15°C° 0 mm 0 m/s 754 mmHg 45%
    09:00 +18°C° 0 mm 1 m/s 754 mmHg 43%
    10:00 +20°C° 0 mm 1 m/s 754 mmHg 41%
    11:00 +21°C° 0 mm 2 m/s 753 mmHg 39%
    12:00 +22°C° 0 mm 1 m/s 753 mmHg 38%
    13:00 +23°C° 0 mm 1 m/s 752 mmHg 38%
    14:00 +24°C° 0 mm 1 m/s 751 mmHg 37%
    15:00 +23°C° 0 mm 1 m/s 751 mmHg 39%
    16:00 +23°C° 0 mm 1 m/s 750 mmHg 41%
    17:00 +23°C° 0 mm 1 m/s 750 mmHg 42%
    18:00 +21°C° 0 mm 1 m/s 750 mmHg 46%
    19:00 +19°C° 0 mm 1 m/s 750 mmHg 50%
    20:00 +18°C° 0 mm 1 m/s 750 mmHg 54%
    21:00 +16°C° 0 mm 1 m/s 750 mmHg 56%
    22:00 +16°C° 0 mm 1 m/s 749 mmHg 57%
    23:00 +15°C° 0 mm 1 m/s 749 mmHg 58%

    29 Septembrie, Sâmbătă

    Timp Temperatura Precipitaţii Vânt Presiune Umiditate
    00:00 +15°C° 0 mm 1 m/s 749 mmHg 58%
    01:00 +15°C° 0 mm 1 m/s 749 mmHg 59%
    02:00 +15°C° 0 mm 1 m/s 749 mmHg 60%
    03:00 +15°C° 0 mm 1 m/s 748 mmHg 60%
    04:00 +14°C° 0 mm 1 m/s 748 mmHg 60%
    05:00 +14°C° 0 mm 1 m/s 748 mmHg 60%
    06:00 +15°C° 0 mm 1 m/s 748 mmHg 57%
    07:00 +16°C° 0 mm 1 m/s 748 mmHg 55%
    08:00 +18°C° 0 mm 1 m/s 748 mmHg 52%
    09:00 +19°C° 0 mm 1 m/s 748 mmHg 48%
    10:00 +21°C° 0 mm 1 m/s 748 mmHg 43%
    11:00 +23°C° 0 mm 1 m/s 748 mmHg 39%
    12:00 +23°C° 0 mm 1 m/s 748 mmHg 38%
    13:00 +24°C° 0 mm 1 m/s 748 mmHg 37%
    14:00 +25°C° 0 mm 1 m/s 748 mmHg 36%
    15:00 +24°C° 0 mm 1 m/s 748 mmHg 38%
    16:00 +24°C° 0 mm 1 m/s 748 mmHg 40%
    17:00 +23°C° 0 mm 2 m/s 748 mmHg 42%
    18:00 +21°C° 0 mm 2 m/s 749 mmHg 48%
    19:00 +19°C° 0 mm 2 m/s 749 mmHg 53%
    20:00 +18°C° 0 mm 3 m/s 750 mmHg 58%
    21:00 +17°C° 0.1 mm 3 m/s 750 mmHg 62%
    22:00 +17°C° 0.1 mm 3 m/s 750 mmHg 66%
    23:00 +16°C° 0.1 mm 3 m/s 751 mmHg 70%

    30 Septembrie, Duminică

    Timp Temperatura Precipitaţii Vânt Presiune Umiditate
    00:00 +16°C° 0.1 mm 3 m/s 751 mmHg 71%
    01:00 +14°C° 0.1 mm 3 m/s 751 mmHg 72%
    02:00 +14°C° 0.1 mm 3 m/s 751 mmHg 73%
    03:00 +14°C° 0.1 mm 3 m/s 752 mmHg 73%
    04:00 +14°C° 0.1 mm 3 m/s 752 mmHg 73%
    05:00 +14°C° 0.1 mm 3 m/s 752 mmHg 73%
    06:00 +14°C° 0 mm 3 m/s 752 mmHg 70%
    07:00 +16°C° 0 mm 3 m/s 753 mmHg 67%
    08:00 +16°C° 0 mm 3 m/s 753 mmHg 65%
    09:00 +17°C° 0 mm 3 m/s 753 mmHg 60%
    10:00 +18°C° 0 mm 4 m/s 753 mmHg 56%
    11:00 +19°C° 0 mm 4 m/s 753 mmHg 51%
    12:00 +20°C° 0 mm 4 m/s 753 mmHg 49%
    13:00 +20°C° 0 mm 3 m/s 753 mmHg 47%
    14:00 +21°C° 0 mm 3 m/s 752 mmHg 45%
    15:00 +20°C° 0 mm 3 m/s 752 mmHg 46%
    16:00 +20°C° 0 mm 3 m/s 752 mmHg 46%
    17:00 +20°C° 0 mm 2 m/s 752 mmHg 47%
    18:00 +18°C° 0 mm 2 m/s 752 mmHg 49%
    19:00 +17°C° 0 mm 2 m/s 752 mmHg 51%
    20:00 +16°C° 0 mm 2 m/s 753 mmHg 54%
    21:00 +15°C° 0 mm 2 m/s 753 mmHg 54%
    22:00 +14°C° 0 mm 2 m/s 753 mmHg 55%
    23:00 +14°C° 0 mm 2 m/s 753 mmHg 55%
    Arată mai mult